COSMOS 249 DEB, 3609

Orbit data source: Space-Track

COSMOS 249 DEB, 3609 is space debris in LEO originally from a launch on Sun, 20 Oct 1968 UTC launched from the Tyuratam Missile And Space Complex (TTMTR). Debris objects in space refer to the collection of defunct objects orbiting the Earth. Examples of debris include non-operational satellites, rocket bodies, and fragments generated from explosions, collisions, or faulty payload assembly.

Loading next visibility...
Identifier
3609, 1968-091AB
Orbit
LEO
Country
Flag of CISCIS
Related business
Manufacturer
Unknown
Mission
Spacecraft
Bus & Motor
Unknown
Mass
Unknown
Launch date (UTC)
1968-10-20 (57 years ago)
Launch vehicle
Unknown
Launch site
Tyuratam Missile And Space Complex (TTMTR)
Object type
Payload
Rocket body
Debris
Shape & HBR
Unknown
Radar Cross Section
Small (<0.1 m²)

Expand to show TLE details & history
Last TLE update: 13 hours ago

TLE from 13 hours ago
0 COSMOS 249 DEB
1 03609U 68091AB  25260.91021859  .00003685  00000-0  64026-3 0  9995
2 03609  62.2713 193.3062 0747679  70.3892 297.6243 13.64421126667714
Epoch: 2025-09-17T21:50Z
TLE epoch observation values (Epoch: 2025-09-17T21:50:42.886Z)
Latitude
-0.00001°
Longitude
-131.45189°
Altitude
798.992 km
Speed
7.566 km/s
True Right ascension
12h 53m 13s
True Declination
0° 00' 00"
Sunlit
Object was in daylight at epoch
Visualization orbit readout
Latitude
Unknown
Longitude
Unknown
Altitude
Unknown
Speed
Unknown
Apparent Right ascension
Unknown
Apparent Declination
Unknown
Sunlit
N/A
Visualization observer readout
Local Sidereal Time
03:41:28
Azimuth
Unknown
Elevation
Unknown
Doppler factor
Unknown
Orbital elements
Apogee altitude
1,571.661 km
Perigee altitude
465.58 km
Semi-major axis
7,396.758 km
Eccentricity
0.07477
Inclination
62.2713°
RAAN
193.3062°
Arg. of periapsis
70.3892°
True anomaly
289.71532°
Mean anomaly
297.6243°
Eccentric anomaly
293.70176°
Mean motion
3.41178 °/min
Orbital period
105.52 mins
BSTAR
0.00064026
Loading maneuver chart data...
Computing Atmospheric mass density...

Documentation

Showing up to 5 results
|